Date String (YYYY-MM-DD hh:mm:ss) UTC,Instrument flags,absolute air pressure of the measurement (hPa),sample flow rate (lpm),inlet stack bypass flow (lpm),air temperature of the measurement (°C),ambient temperature measured by the external sensor (°C),aerosol sample conditioner tube jacket temperature (°C),OPC LED temperature (°C),internal box temperature (°C),relative humidity of the measurement (%),span deviation,mass concentration of particles derived from Lorenz-Mie calculation of OPC scattering (μg/m³),mass concentration of particles derived from Lorenz-Mie calculation of OPC scattering (μg/m³),mass concentration of particles derived from Lorenz-Mie calculation of OPC scattering (μg/m³)
DateTimeUTC,F1_M11,P_M11,Q1_M11,Q2_M11,T1_M11,T2_M11,T3_M11,T4_M11,T5_M11,U1_M11,ZSPAN_M11,X0_M11,X2_M11,X1_M11
2023-06-05 08:00:00,SystemResetWarning,0835.3,5.00,000.00,030.2,028.6,000.0,038.6,031.8,30.8,0000.9,0007.44,0004.68,0004.39
2023-06-05 08:01:00,SystemResetWarning,0835.3,5.00,000.00,030.2,028.6,000.0,038.6,031.8,30.8,0001.0,0007.47,0004.68,0004.40
2023-06-05 08:02:00,SystemResetWarning,0835.3,5.00,000.00,030.2,028.6,000.0,038.6,031.8,30.8,0001.3,0007.44,0004.67,0004.40
2023-06-05 08:03:00,SystemResetWarning,0835.3,5.00,000.00,030.2,028.6,000.0,038.6,031.8,30.8,0001.7,0007.40,0004.65,0004.40
2023-06-05 08:04:00,SystemResetWarning,0835.3,4.99,000.00,030.2,028.6,000.0,038.6,031.7,30.8,0001.5,0007.37,0004.64,0004.40
2023-06-05 08:05:00,SystemResetWarning,0835.2,4.99,000.00,030.2,028.6,000.0,038.6,031.7,30.8,0001.8,0007.46,0004.63,0004.39
2023-06-05 08:06:00,SystemResetWarning,0835.3,5.00,000.00,030.2,028.6,000.0,038.6,031.7,30.8,0001.5,0007.53,0004.64,0004.38
2023-06-05 08:07:00,SystemResetWarning,0835.3,5.01,000.00,030.2,028.6,000.0,038.6,031.7,30.8,0001.0,0007.48,0004.64,0004.37
2023-06-05 08:08:00,SystemResetWarning,0835.3,5.01,000.00,030.2,028.6,000.0,038.6,031.8,30.8,0000.9,0007.48,0004.64,0004.36
2023-06-05 08:09:00,SystemResetWarning,0835.2,4.99,000.00,030.2,028.6,000.0,038.6,031.8,30.8,0001.3,0007.42,0004.61,0004.34
2023-06-05 08:10:00,SystemResetWarning,0835.3,4.99,000.00,030.2,028.6,000.0,038.6,031.7,30.8,0001.5,0008.06,0004.56,0004.29
2023-06-05 08:11:00,SystemResetWarning,0835.3,5.00,000.00,030.2,028.6,000.0,038.6,031.8,30.8,0001.8,0008.00,0004.52,0004.25
2023-06-05 08:12:00,SystemResetWarning,0835.3,5.00,000.00,030.2,028.6,000.0,038.6,031.8,30.8,0002.0,0007.90,0004.50,0004.23
2023-06-05 08:13:00,SystemResetWarning,0835.3,5.01,000.00,030.2,028.6,000.0,038.6,031.7,30.7,0001.7,0007.84,0004.45,0004.19
2023-06-05 08:14:00,SystemResetWarning,0835.3,4.99,000.00,030.2,028.6,000.0,038.6,031.7,30.6,0001.3,0007.77,0004.39,0004.12
2023-06-05 08:15:00,SystemResetWarning,0835.3,5.00,000.00,030.2,028.6,000.0,038.6,031.8,30.5,0001.1,0007.74,0004.33,0004.07
2023-06-05 08:16:00,SystemResetWarning,0835.3,5.00,000.00,030.2,028.6,000.0,038.6,031.8,30.5,0001.2,0007.62,0004.28,0004.00
2023-06-05 08:17:00,SystemResetWarning,0835.3,4.99,000.00,030.2,028.6,000.0,038.6,031.8,30.4,0001.6,0007.49,0004.20,0003.93
2023-06-05 08:18:00,SystemResetWarning,0835.2,5.00,000.00,030.2,028.6,000.0,038.6,031.8,30.3,0001.9,0007.32,0004.10,0003.85
2023-06-05 08:19:00,SystemResetWarning,0835.3,5.01,000.00,030.2,028.6,000.0,038.6,031.8,30.3,0002.0,0007.25,0004.02,0003.77
2023-06-05 08:20:00,SystemResetWarning,0835.2,5.01,000.00,030.2,028.6,000.0,038.6,031.8,30.2,0001.6,0007.09,0003.94,0003.69
2023-06-05 08:21:00,SystemResetWarning,0835.2,5.00,000.00,030.2,028.6,000.0,038.6,031.8,30.2,0001.3,0005.80,0003.88,0003.62
2023-06-05 08:22:00,SystemResetWarning,0835.2,4.99,000.00,030.2,028.6,000.0,038.6,031.8,30.1,0000.0,0005.55,0003.79,0003.54
2023-06-05 08:23:00,SystemResetWarning,0835.2,4.99,000.00,030.2,028.6,000.0,038.6,031.8,30.1,0000.0,0005.72,0003.71,0003.46
2023-06-05 08:24:00,SystemResetWarning,0835.2,4.99,000.00,030.2,028.6,000.0,038.6,031.8,30.1,0000.0,0005.51,0003.64,0003.40
2023-06-05 08:25:00,SystemResetWarning,0835.2,5.00,000.00,030.2,028.6,000.0,038.6,031.8,30.0,0000.0,0005.42,0003.60,0003.36
2023-06-05 08:26:00,SystemResetWarning,0835.2,5.01,000.00,030.2,028.6,000.0,038.6,031.8,30.0,0000.0,0005.34,0003.56,0003.31
2023-06-05 08:27:00,SystemResetWarning,0835.2,5.01,000.00,030.2,028.6,000.0,038.6,031.8,30.1,0000.0,0006.11,0003.50,0003.27
2023-06-05 08:28:00,SystemResetWarning,0835.2,5.01,000.00,030.2,028.6,000.0,038.6,031.8,30.0,0000.0,0006.32,0003.43,0003.22
2023-06-05 08:29:00,SystemResetWarning,0835.2,5.00,000.00,030.2,028.6,000.0,038.6,031.8,29.8,0000.0,0006.12,0003.36,0003.16
2023-06-05 08:30:00,SystemResetWarning,0835.2,5.00,000.00,030.2,028.6,000.0,038.6,031.8,29.6,0000.0,0005.98,0003.30,0003.09
2023-06-05 08:31:00,SystemResetWarning,0835.2,5.00,000.00,030.2,028.6,000.0,038.6,031.8,29.7,0000.0,0005.74,0003.23,0002.98
2023-06-05 08:32:00,SystemResetWarning,0835.1,4.99,000.00,030.2,028.6,000.0,038.6,031.8,29.6,0000.0,0005.48,0003.13,0002.86
2023-06-05 08:33:00,SystemResetWarning,0835.1,5.00,000.00,030.2,028.6,000.0,038.6,031.8,29.5,0000.0,0005.27,0003.01,0002.71
2023-06-05 08:34:00,SystemResetWarning,0835.1,5.00,000.00,030.2,028.6,000.0,038.6,031.8,29.5,0000.0,0004.83,0002.87,0002.57
2023-06-05 08:35:00,SystemResetWarning,0835.1,5.00,000.00,030.2,028.6,000.0,038.6,031.8,29.4,0000.0,0004.62,0002.73,0002.43
2023-06-05 08:36:00,SystemResetWarning,0835.1,5.00,000.00,030.2,028.6,000.0,038.6,031.8,29.4,0000.0,0004.47,0002.57,0002.30
2023-06-05 08:37:00,SystemResetWarning,0835.1,5.00,000.00,030.2,028.6,000.0,038.6,031.8,29.4,0000.0,0004.22,0002.40,0002.17
2023-06-05 08:38:00,SystemResetWarning,0835.1,5.01,000.00,030.2,028.6,000.0,038.6,031.8,29.3,0000.0,0003.35,0002.31,0002.07
2023-06-05 08:39:00,SystemResetWarning,0835.2,5.00,000.00,030.2,028.7,000.0,038.6,031.8,29.0,0000.0,0002.68,0002.23,0001.98
2023-06-05 08:40:00,SystemResetWarning,0835.1,5.00,000.00,030.2,028.6,000.0,038.6,031.8,28.8,0000.0,0002.65,0002.18,0001.94
2023-06-05 08:41:00,SystemResetWarning,0835.1,4.99,000.00,030.2,028.7,000.0,038.6,031.8,28.8,0000.0,0002.67,0002.18,0001.91
2023-06-05 08:42:00,SystemResetWarning,0835.1,5.00,000.00,030.2,028.7,000.0,038.6,031.8,29.3,0000.0,0002.76,0002.20,0001.93
2023-06-05 08:43:00,SystemResetWarning,0835.2,4.99,000.00,030.2,028.7,000.0,038.6,031.8,29.4,0000.0,0002.87,0002.26,0001.98
2023-06-05 08:44:00,SystemResetWarning,0835.1,5.01,000.00,030.2,028.7,000.0,038.6,031.9,29.0,0000.0,0002.92,0002.31,0002.04
2023-06-05 08:45:00,SystemResetWarning,0835.1,5.00,000.00,030.2,028.7,000.0,038.6,031.9,28.7,0000.0,0002.95,0002.33,0002.05
2023-06-05 08:46:00,SystemResetWarning,0835.2,5.00,000.00,030.2,028.7,000.0,038.6,031.9,28.6,0000.0,0003.46,0002.34,0002.04
2023-06-05 08:47:00,SystemResetWarning,0835.1,5.00,000.00,030.2,028.7,000.0,038.6,031.9,28.6,0000.0,0003.47,0002.32,0002.05
2023-06-05 08:48:00,SystemResetWarning,0835.1,5.00,000.00,030.2,028.7,000.0,038.6,031.8,28.8,0000.0,0003.54,0002.38,0002.08
2023-06-05 08:49:00,SystemResetWarning,0835.1,5.00,000.00,030.2,028.7,000.0,038.6,031.8,28.8,0000.0,0003.63,0002.44,0002.13
2023-06-05 08:50:00,SystemResetWarning,0835.1,5.00,000.00,030.2,028.7,000.0,038.6,031.9,29.1,0000.0,0003.74,0002.52,0002.22
2023-06-05 08:51:00,SystemResetWarning,0835.1,5.00,000.00,030.2,028.7,000.0,038.6,031.9,29.2,0000.0,0003.92,0002.65,0002.32
2023-06-05 08:52:00,SystemResetWarning,0835.2,5.00,000.00,030.2,028.7,000.0,038.6,031.9,29.3,0000.0,0004.04,0002.76,0002.45
2023-06-05 08:53:00,SystemResetWarning,0835.2,5.00,000.00,030.2,028.7,000.0,038.6,031.9,29.5,0000.0,0004.06,0002.85,0002.56
2023-06-05 08:54:00,SystemResetWarning,0835.2,5.00,000.00,030.2,028.6,000.0,038.6,031.9,29.3,0000.0,0004.07,0002.91,0002.62
2023-06-05 08:55:00,SystemResetWarning,0835.1,5.00,000.00,030.2,028.6,000.0,038.6,031.9,29.1,0000.0,0004.05,0002.89,0002.62
2023-06-05 08:56:00,SystemResetWarning,0835.2,5.00,000.00,030.2,028.6,000.0,038.6,031.9,29.0,0000.0,0004.10,0002.94,0002.68
2023-06-05 08:57:00,SystemResetWarning,0835.1,5.00,000.00,030.2,028.6,000.0,038.6,031.8,29.0,0000.0,0003.72,0003.00,0002.75
2023-06-05 08:58:00,SystemResetWarning,0835.2,5.01,000.00,030.2,028.6,000.0,038.6,031.9,28.8,0000.0,0003.73,0003.06,0002.79
2023-06-05 08:59:00,SystemResetWarning,0835.2,5.01,000.00,030.2,028.6,000.0,038.6,031.9,28.9,0000.0,0003.78,0003.09,0002.82
